loading
DOY 173 | 2024-06-21T04:09:33Z

THOR ABLESTAR DEB, 403

Orbit data source: Space-Track

THOR ABLESTAR DEB, 403 is space debris in LEO originally from a launch on Thu, 29 Jun 1961 UTC launched from the Air Force Eastern Test Range (AFETR). Debris objects in space refer to the collection of defunct objects orbiting the Earth. Examples of debris include non-operational satellites, rocket bodies, and fragments generated from explosions, collisions, or faulty payload assembly.

Loading next visibility...
Loading greatness...
THOR ABLESTAR DEB details
NORAD ID403
COSPAR ID
1961-015EC
Orbit
LEO
Last TLE update2 days ago
Origin
Flag of USUSAF SSD (US)
ManufacturerUnknown
BusUnknown
MotorUnknown
MassWet unknown, Dry mass unknown
Launch date (UTC)
1961-06-29 (63 years ago)
Launch vehicleUnknown
Launch site
Air Force Eastern Test Range (AFETR)
Object type
Payload
Rocket body
Debris
Radar Cross SectionSmall (<0.1 m²)
Predictive object data (real-time)
Latitude41.3851°
Longitude153.10184°
Altitude967.467 km
Speed7.371 km/s
Apparent Right ascension20h 44m 51s
Apparent Declination20° 06' 10"
Sunlit
Object is in daylight
Predictive observer data (real-time)
Local Sidereal Time15:08:30
Azimuth77.823° E
Elevation17.141°
Doppler factor1
Orbital elements
Apogee977.914 km
Perigee939.501 km
Semi-major axis7,336.844 km
Eccentricity0.0026178
Inclination66.8404°
RAAN231.1443°
Arg. of periapsis310.8485°
True anomaly165.7073°
Mean anomaly165.6331°
Mean motion3.45366 °/min
BSTAR0.00011915
Period104.24 mins
Definitive object data (Epoch: 2024-06-19T12:31:31.161Z)
Latitude55.44334°
Longitude-83.12295°
Altitude987.291 km
Speed7.354 km/s
True Right ascension00h 51m 56s
True Declination55° 17' 15"
Sunlit
Object was in daylight at TLE epoch
TLE from 2 days ago
0 THOR ABLESTAR DEB
1 00403U 61015EC  24171.52188844  .00000052  00000-0  11915-3 0  9992
2 00403  66.8404 231.1443 0026178 310.8485 165.6331 13.81008832170667
Epoch: 2024-06-19T12:31Z
No data available

THOR ABLESTAR DEB Visibility forecast

Observer location: 39.9160978°, -105.1181434, 0m alt.

THOR ABLESTAR DEB is not visible in the next 10 days
Span
Click to sort rows by Start time (UTC) header in descending order
Start Az.
Max El. time (UTC)
Max El. Az.
Max El.
End time (UTC)
End Az.